{"data":{"norad_id":63262,"epoch":"2026-05-24T23:41:14.665056Z","epoch_age_seconds":69397,"freshness":"FRESH","line1":"1 63262U 25052BE  26144.98697529  .00005720  00000+0  46694-3 0  9990","line2":"2 63262  97.6924  38.8818 0006491  89.8282 270.3685 14.99789399 65281","mean_motion":14.99789399,"eccentricity":0.0006491,"inclination_deg":97.6924,"raan_deg":38.8818,"arg_perigee_deg":89.8282,"mean_anomaly_deg":270.3685,"bstar":0.00046694,"rev_number":6528,"period_min":96.013480356651,"perigee_km":563.03803678117,"apogee_km":572.05492307481,"semimajor_km":6945.683479928,"source":"CELESTRAK","updated_at":"2026-05-25T13:38:13.539788Z"}}